TimeEDT,TemperatureF,Dew PointF,Humidity,Sea Level PressureIn,VisibilityMPH,Wind Direction,Wind SpeedMPH,Gust SpeedMPH,PrecipitationIn,Events,Conditions,WindDirDegrees,DateUTC
12:53 AM,73.9,70.0,87,30.11,10.0,Calm,Calm,-,N/A,,Clear,0,2013-07-10 04:53:00
1:53 AM,73.9,70.0,87,30.10,10.0,Calm,Calm,-,N/A,,Clear,0,2013-07-10 05:53:00
2:53 AM,72.0,70.0,93,30.09,10.0,Calm,Calm,-,N/A,,Clear,0,2013-07-10 06:53:00
3:53 AM,72.0,70.0,93,30.09,10.0,Calm,Calm,-,N/A,,Clear,0,2013-07-10 07:53:00
4:53 AM,71.1,69.1,93,30.09,10.0,Calm,Calm,-,N/A,,Scattered Clouds,0,2013-07-10 08:53:00
5:53 AM,73.0,70.0,90,30.09,10.0,Calm,Calm,-,N/A,,Mostly Cloudy,0,2013-07-10 09:53:00
6:53 AM,73.0,70.0,90,30.09,9.0,Calm,Calm,-,N/A,,Clear,0,2013-07-10 10:53:00
7:07 AM,73.4,69.8,88,30.09,8.0,Calm,Calm,-,N/A,,Scattered Clouds,0,2013-07-10 11:07:00
7:16 AM,73.4,71.6,94,30.09,10.0,Calm,Calm,-,N/A,,Mostly Cloudy,0,2013-07-10 11:16:00
7:53 AM,75.0,73.0,94,30.09,3.0,South,3.5,-,N/A,,Overcast,180,2013-07-10 11:53:00
7:57 AM,75.2,73.4,94,30.10,1.8,South,3.5,-,N/A,,Overcast,180,2013-07-10 11:57:00
8:09 AM,75.2,73.4,94,30.11,3.0,South,3.5,-,N/A,,Overcast,180,2013-07-10 12:09:00
8:32 AM,77.0,73.4,89,30.10,10.0,Calm,Calm,-,N/A,,Scattered Clouds,0,2013-07-10 12:32:00
8:53 AM,79.0,73.0,82,30.10,10.0,SE,4.6,-,N/A,,Clear,140,2013-07-10 12:53:00
9:53 AM,82.0,73.0,74,30.11,10.0,Variable,3.5,-,N/A,,Clear,0,2013-07-10 13:53:00
10:53 AM,84.9,71.1,63,30.10,10.0,Calm,Calm,-,N/A,,Clear,0,2013-07-10 14:53:00
11:53 AM,86.0,66.0,51,30.10,10.0,Calm,Calm,-,N/A,,Clear,0,2013-07-10 15:53:00
12:53 PM,89.1,68.0,50,30.09,10.0,South,4.6,-,N/A,,Scattered Clouds,170,2013-07-10 16:53:00
1:53 PM,90.0,64.9,43,30.05,10.0,SE,5.8,-,N/A,,Partly Cloudy,130,2013-07-10 17:53:00
2:53 PM,90.0,66.0,45,30.03,10.0,Calm,Calm,-,N/A,,Partly Cloudy,0,2013-07-10 18:53:00
3:53 PM,91.0,66.9,45,30.00,10.0,East,4.6,-,N/A,,Clear,80,2013-07-10 19:53:00
4:53 PM,91.0,66.9,45,29.99,10.0,Calm,Calm,-,N/A,,Partly Cloudy,0,2013-07-10 20:53:00
5:53 PM,91.9,66.0,42,29.98,10.0,NNW,4.6,-,N/A,,Partly Cloudy,330,2013-07-10 21:53:00
6:53 PM,90.0,66.9,46,29.97,10.0,NNW,6.9,-,N/A,,Partly Cloudy,340,2013-07-10 22:53:00
7:53 PM,82.9,71.1,67,29.98,10.0,East,3.5,-,N/A,,Mostly Cloudy,80,2013-07-10 23:53:00
8:53 PM,80.1,73.0,79,29.99,10.0,Calm,Calm,-,N/A,,Partly Cloudy,0,2013-07-11 00:53:00
9:53 PM,80.1,73.0,79,30.01,10.0,WNW,5.8,-,N/A,,Overcast,290,2013-07-11 01:53:00
10:53 PM,79.0,72.0,79,30.03,10.0,North,8.1,-,N/A,,Overcast,360,2013-07-11 02:53:00
11:23 PM,78.8,73.4,83,30.04,10.0,NE,6.9,-,N/A,Thunderstorm,Thunderstorm,40,2013-07-11 03:23:00
11:30 PM,77.0,73.4,89,30.04,10.0,ENE,8.1,-,N/A,Thunderstorm,Thunderstorm,60,2013-07-11 03:30:00
11:44 PM,75.2,71.6,89,30.06,1.5,NE,18.4,31.1,0.03,Rain-Thunderstorm,Heavy Thunderstorms and Rain,50,2013-07-11 03:44:00
11:47 PM,75.2,71.6,89,30.06,0.8,ENE,17.3,31.1,0.21,Rain-Thunderstorm,Heavy Thunderstorms and Rain,60,2013-07-11 03:47:00
11:53 PM,73.9,71.1,91,30.04,0.5,ENE,12.7,31.1,0.68,Fog-Rain-Thunderstorm,Heavy Thunderstorms and Rain,60,2013-07-11 03:53:00